Flag for Canada Weather past 2 weeks in Peterborough, Ontario, Canada

Now
73 °F

Sunny.


Feels Like: 75 °F
Forecast: 62 / 82 °F
Wind: 9 mph from Southwest

Location: Peterborough Airport

Current Time: May 26, 2015 at 9:51:47 AM

Latest Report: May 26, 2015 at 9:00 AM


Visibility: 9 mi

Pressure: 30.05 "Hg

Humidity: 74%

Dew point: 64 °F

Location of PeterboroughLocation

Historic Weather in Peterborough — Graph

°F

Peterborough temperature yesterday

Maximum temperature yesterday: 75 °F (at 7:00 PM)
Minimum temperature yesterday: 57 °F (at 5:00 AM)
Average temperature yesterday: 66 °F

Past Weeks' High & Low Weather Summary

 TemperatureHumidityPressure
High81 °F (May 18, 4:00 PM)100% (May 11, 8:57 AM)30.49 "Hg (May 11, 8:57 AM)
Low28 °F (May 23, 3:00 AM)23% (May 20, 5:00 PM)29.72 "Hg (May 12, 4:00 AM)
Average57 °F68%30.07 "Hg
* Reported May 11 8:04 AM — May 26 8:00 AM, Peterborough, Weather by CustomWeather, © 2015

Note: Actual official high and low records may vary slightly from our data, if they occured in-between our weather recording intervals... More about our weather records

Advertising

Peterborough weather history for previous 24 hours

 ConditionsComfort  
Time TempWeatherWind HumidityBarometerVisibility
8:00 AM
Tue, May 26
72 °FSunny.6 mph73%30.05 "Hg9 mi
7:00 AM68 °FSunny.6 mph83%30.03 "Hg9 mi
6:00 AM66 °FClear.6 mph88%30.02 "Hg9 mi
5:00 AM68 °FClear.7 mph83%30.00 "Hg9 mi
4:00 AM68 °FPassing clouds.5 mph83%29.98 "Hg9 mi
3:00 AM68 °FPartly cloudy.7 mph83%29.98 "Hg9 mi
2:00 AM68 °FOvercast.12 mph88%29.97 "Hg9 mi
1:00 AM70 °FMostly cloudy.8 mph78%29.97 "Hg9 mi
12:00 AM72 °FPassing clouds.7 mph69%29.95 "Hg9 mi
11:00 PM
Mon, May 25
72 °FPassing clouds.7 mph69%29.94 "Hg9 mi
10:00 PM72 °FClear.10 mph65%29.94 "Hg9 mi
9:00 PM73 °FOvercast.9 mph61%29.93 "Hg9 mi
8:00 PM75 °FCloudy.9 mph61%29.93 "Hg9 mi
7:00 PM75 °FMostly cloudy.12 mph61%29.94 "Hg9 mi
6:00 PM73 °FPartly sunny.8 mph65%29.95 "Hg9 mi
5:00 PM72 °FMostly cloudy.7 mph69%29.96 "Hg9 mi
4:00 PM70 °FMostly cloudy.7 mph78%29.98 "Hg9 mi
3:51 PM70 °FMore clouds than sun.7 mph73%29.98 "Hg9 mi
3:00 PM70 °FLight rain. Mostly cloudy.12 mph69%30.00 "Hg9 mi
2:00 PM72 °FBroken clouds.8 mph65%30.00 "Hg9 mi
1:51 PM70 °FMostly cloudy.7 mph69%30.01 "Hg9 mi
1:00 PM72 °FPartly sunny.12 mph57%30.01 "Hg9 mi
12:00 PM70 °FPartly sunny.12 mph60%30.03 "Hg9 mi
11:00 AM68 °FBroken clouds.10 mph69%30.08 "Hg9 mi
10:00 AM63 °FBroken clouds.5 mph88%30.10 "Hg9 mi
9:00 AM61 °FBroken clouds.2 mph88%30.12 "Hg9 mi
Weather by CustomWeather, © 2015

See weather overviewHow to use our weather pages